This is the latest recevied weather packets stored in our database for station/object DL4PY-13. If no packets are shown the sender has not sent any weather packets the latest 10 day(s).
| Time | Temp. | Humidity | Pressure | Rain* | Wind** | Luminosity | Snow |
|---|---|---|---|---|---|---|---|
| 1777718327 | 23.33° C | 41% | 1020.2 hPa | 0 mm | - | - | - |
| 1777718037 | 23.33° C | 42% | 1020.3 hPa | 0 mm | - | - | - |
| 1777717738 | 23.33° C | 41% | 1020.4 hPa | 0 mm | - | - | - |
| 1777717427 | 23.33° C | 43% | 1020.5 hPa | 0 mm | - | - | - |
| 1777716527 | 22.78° C | 43% | 1020.6 hPa | 0 mm | - | - | - |
| 1777716237 | 22.78° C | 42% | 1020.6 hPa | 0 mm | - | - | - |
| 1777715938 | 22.78° C | 42% | 1020.6 hPa | 0 mm | - | - | - |
| 1777715627 | 22.22° C | 44% | 1020.7 hPa | 0 mm | - | - | - |
| 1777715339 | 22.78° C | 42% | 1020.6 hPa | 0 mm | - | - | - |
| 1777714728 | 22.22° C | 41% | 1020.7 hPa | 0 mm | - | - | - |
| 1777714437 | 22.22° C | 41% | 1020.9 hPa | 0 mm | - | - | - |
| 1777714139 | 22.22° C | 42% | 1021 hPa | 0 mm | - | - | - |
| 1777713827 | 21.67° C | 42% | 1021 hPa | 0 mm | - | - | - |
| 1777713537 | 21.67° C | 42% | 1021.1 hPa | 0 mm | - | - | - |
| 1777712928 | 21.67° C | 41% | 1021.3 hPa | 0 mm | - | - | - |
| 1777712637 | 21.11° C | 43% | 1021.5 hPa | 0 mm | - | - | - |
| 1777712338 | 20.56° C | 43% | 1021.5 hPa | 0 mm | - | - | - |
| 1777712028 | 20.56° C | 43% | 1021.5 hPa | 0 mm | - | - | - |
| 1777711737 | 20.56° C | 42% | 1021.4 hPa | 0 mm | - | - | - |
| 1777711126 | 19.44° C | 44% | 1021.6 hPa | 0 mm | - | - | - |
| 1777710837 | 19.44° C | 44% | 1021.7 hPa | 0 mm | - | - | - |
| 1777710227 | 18.89° C | 45% | 1021.7 hPa | 0 mm | - | - | - |
| 1777709936 | 18.89° C | 43% | 1021.7 hPa | 0 mm | - | - | - |
| 1777709326 | 19.44° C | 43% | 1021.8 hPa | 0 mm | - | - | - |
| 1777709038 | 18.89° C | 45% | 1021.9 hPa | 0 mm | - | - | - |
* Rain latest hour (hover to see other rain measurements)
** Current wind speed in m/s (hover to see current wind gust speed)